Time,TemperatureF,DewpointF,PressureIn,WindDirection,WindDirectionDegrees,WindSpeedMPH,WindSpeedGustMPH,Humidity,HourlyPrecipIn,Conditions,Clouds,dailyrainin,SoftwareType,DateUTC
2013-02-19 00:02:00,52.0,32.0,30.11,NNW,337,5.0,7.0,46,0.00,,,0.00,,2013-02-19 06:02:00,
2013-02-19 00:11:00,52.0,32.0,30.11,NNW,337,5.0,7.0,46,0.00,,,0.00,,2013-02-19 06:11:00,
2013-02-19 00:21:00,52.0,32.0,30.12,NNW,344,4.0,9.0,46,0.00,,,0.00,,2013-02-19 06:21:00,
2013-02-19 00:32:00,51.0,31.0,30.12,NNW,336,5.0,8.0,47,0.00,,,0.00,,2013-02-19 06:32:00,
2013-02-19 00:42:00,51.0,31.0,30.12,NNW,336,5.0,8.0,47,0.00,,,0.00,,2013-02-19 06:42:00,
2013-02-19 00:52:00,51.0,31.0,30.11,NNW,336,6.0,8.0,47,0.00,,,0.00,,2013-02-19 06:52:00,
2013-02-19 01:01:00,50.0,31.0,30.12,NNW,337,5.0,7.0,48,0.00,,,0.00,,2013-02-19 07:01:00,
2013-02-19 01:11:00,50.0,31.0,30.12,NNW,337,5.0,7.0,48,0.00,,,0.00,,2013-02-19 07:11:00,
2013-02-19 01:21:00,49.0,31.0,30.12,NNW,337,5.0,8.0,50,0.00,,,0.00,,2013-02-19 07:21:00,
2013-02-19 01:32:00,49.0,31.0,30.12,NNW,337,1.0,5.0,50,0.00,,,0.00,,2013-02-19 07:32:00,
2013-02-19 01:42:00,49.0,31.0,30.12,NNW,337,1.0,5.0,50,0.00,,,0.00,,2013-02-19 07:42:00,
2013-02-19 01:52:00,48.0,31.0,30.12,NNW,337,0.0,0.0,51,0.00,,,0.00,,2013-02-19 07:52:00,
2013-02-19 02:01:00,47.0,31.0,30.12,NNW,337,0.0,2.0,53,0.00,,,0.00,,2013-02-19 08:01:00,
2013-02-19 02:11:00,47.0,31.0,30.12,NNW,337,0.0,2.0,53,0.00,,,0.00,,2013-02-19 08:11:00,
2013-02-19 02:21:00,47.0,31.0,30.11,NNW,337,2.0,5.0,54,0.00,,,0.00,,2013-02-19 08:21:00,
2013-02-19 02:31:00,47.0,31.0,30.11,NNW,338,0.0,1.0,54,0.00,,,0.00,,2013-02-19 08:31:00,
2013-02-19 02:42:00,47.0,31.0,30.11,NNW,338,0.0,1.0,54,0.00,,,0.00,,2013-02-19 08:42:00,
2013-02-19 02:52:00,46.0,30.0,30.11,NNW,337,1.0,2.0,54,0.00,,,0.00,,2013-02-19 08:52:00,
2013-02-19 03:01:00,46.0,30.0,30.10,NNW,338,1.0,3.0,54,0.00,,,0.00,,2013-02-19 09:01:00,
2013-02-19 03:11:00,46.0,30.0,30.10,NNW,338,1.0,3.0,54,0.00,,,0.00,,2013-02-19 09:11:00,
2013-02-19 03:21:00,46.0,30.0,30.11,NNW,338,2.0,7.0,54,0.00,,,0.00,,2013-02-19 09:21:00,
2013-02-19 03:32:00,47.0,31.0,30.12,NNW,339,3.0,5.0,53,0.00,,,0.00,,2013-02-19 09:32:00,
2013-02-19 03:42:00,47.0,31.0,30.12,NNW,339,3.0,5.0,53,0.00,,,0.00,,2013-02-19 09:42:00,
2013-02-19 03:53:00,47.0,31.0,30.12,NNW,342,2.0,6.0,53,0.00,,,0.00,,2013-02-19 09:53:00,
2013-02-19 04:01:00,46.0,30.0,30.13,NNW,342,3.0,6.0,53,0.00,,,0.00,,2013-02-19 10:01:00,
2013-02-19 04:11:00,46.0,30.0,30.13,NNW,342,3.0,6.0,53,0.00,,,0.00,,2013-02-19 10:11:00,
2013-02-19 04:21:00,46.0,30.0,30.13,NNW,342,1.0,5.0,54,0.00,,,0.00,,2013-02-19 10:21:00,
2013-02-19 04:31:00,45.0,30.0,30.14,NNW,342,2.0,3.0,56,0.00,,,0.00,,2013-02-19 10:31:00,
2013-02-19 04:41:00,45.0,30.0,30.14,NNW,342,2.0,3.0,56,0.00,,,0.00,,2013-02-19 10:41:00,
2013-02-19 04:52:00,44.0,30.0,30.14,NNW,342,0.0,0.0,57,0.00,,,0.00,,2013-02-19 10:52:00,
2013-02-19 05:01:00,43.0,30.0,30.16,NNW,342,0.0,0.0,59,0.00,,,0.00,,2013-02-19 11:01:00,
2013-02-19 05:11:00,42.0,30.0,30.16,NNW,342,0.0,0.0,62,0.00,,,0.00,,2013-02-19 11:11:00,
2013-02-19 05:21:00,42.0,30.0,30.16,NNW,342,0.0,0.0,62,0.00,,,0.00,,2013-02-19 11:21:00,
2013-02-19 05:32:00,41.0,30.0,30.17,NNW,342,0.0,0.0,65,0.00,,,0.00,,2013-02-19 11:32:00,
2013-02-19 05:42:00,41.0,30.0,30.17,NNW,342,0.0,0.0,65,0.00,,,0.00,,2013-02-19 11:42:00,
2013-02-19 05:52:00,40.0,30.0,30.17,NNW,342,0.0,1.0,67,0.00,,,0.00,,2013-02-19 11:52:00,
2013-02-19 06:01:00,40.0,30.0,30.19,NNW,342,1.0,3.0,68,0.00,,,0.00,,2013-02-19 12:01:00,
2013-02-19 06:12:00,40.0,30.0,30.19,NNW,342,1.0,3.0,68,0.00,,,0.00,,2013-02-19 12:12:00,
2013-02-19 06:22:00,40.0,30.0,30.18,NNW,342,2.0,5.0,66,0.00,,,0.00,,2013-02-19 12:22:00,
2013-02-19 06:32:00,42.0,30.0,30.19,NNW,342,0.0,2.0,63,0.00,,,0.00,,2013-02-19 12:32:00,
2013-02-19 06:42:00,42.0,30.0,30.19,NNW,342,0.0,2.0,63,0.00,,,0.00,,2013-02-19 12:42:00,
2013-02-19 06:52:00,42.0,30.0,30.21,NNW,342,0.0,0.0,63,0.00,,,0.00,,2013-02-19 12:52:00,
2013-02-19 07:02:00,42.0,29.0,30.22,North,11,4.0,7.0,60,0.00,,,0.00,,2013-02-19 13:02:00,
2013-02-19 07:11:00,42.0,29.0,30.22,North,11,4.0,7.0,60,0.00,,,0.00,,2013-02-19 13:11:00,
2013-02-19 07:22:00,43.0,30.0,30.23,North,11,2.0,5.0,59,0.00,,,0.00,,2013-02-19 13:22:00,
2013-02-19 07:32:00,43.0,29.0,30.24,North,11,4.0,6.0,58,0.00,,,0.00,,2013-02-19 13:32:00,
2013-02-19 07:41:00,43.0,29.0,30.24,North,11,4.0,6.0,58,0.00,,,0.00,,2013-02-19 13:41:00,
2013-02-19 07:52:00,43.0,30.0,30.26,North,11,0.0,3.0,59,0.00,,,0.00,,2013-02-19 13:52:00,
2013-02-19 08:01:00,42.0,30.0,30.27,North,11,0.0,0.0,61,0.00,,,0.00,,2013-02-19 14:01:00,
2013-02-19 08:11:00,42.0,30.0,30.27,North,11,0.0,0.0,61,0.00,,,0.00,,2013-02-19 14:11:00,
2013-02-19 08:21:00,41.0,29.0,30.27,North,11,0.0,0.0,62,0.00,,,0.00,,2013-02-19 14:21:00,
2013-02-19 08:32:00,43.0,30.0,30.28,North,11,1.0,3.0,61,0.00,,,0.00,,2013-02-19 14:32:00,
2013-02-19 08:42:00,43.0,30.0,30.28,North,11,1.0,3.0,61,0.00,,,0.00,,2013-02-19 14:42:00,
2013-02-19 08:52:00,45.0,31.0,30.29,NNE,19,3.0,8.0,57,0.00,,,0.00,,2013-02-19 14:52:00,
2013-02-19 09:01:00,45.0,28.0,30.29,ENE,76,3.0,8.0,52,0.00,,,0.00,,2013-02-19 15:01:00,
2013-02-19 09:11:00,45.0,28.0,30.29,ENE,76,3.0,8.0,52,0.00,,,0.00,,2013-02-19 15:11:00,
2013-02-19 09:21:00,46.0,27.0,30.30,ENE,63,3.0,8.0,47,0.00,,,0.00,,2013-02-19 15:21:00,
2013-02-19 09:31:00,47.0,27.0,30.31,ENE,65,3.0,8.0,45,0.00,,,0.00,,2013-02-19 15:31:00,
2013-02-19 09:42:00,47.0,27.0,30.31,ENE,65,3.0,8.0,45,0.00,,,0.00,,2013-02-19 15:42:00,
2013-02-19 09:52:00,47.0,26.0,30.31,ENE,62,9.0,13.0,43,0.00,,,0.00,,2013-02-19 15:52:00,
2013-02-19 10:01:00,48.0,27.0,30.31,NE,51,6.0,12.0,43,0.00,,,0.00,,2013-02-19 16:01:00,
2013-02-19 10:11:00,48.0,27.0,30.31,NE,51,6.0,12.0,43,0.00,,,0.00,,2013-02-19 16:11:00,
2013-02-19 10:21:00,49.0,27.0,30.31,NE,55,6.0,10.0,42,0.00,,,0.00,,2013-02-19 16:21:00,
2013-02-19 10:32:00,50.0,27.0,30.30,NE,55,5.0,8.0,40,0.00,,,0.00,,2013-02-19 16:32:00,
2013-02-19 10:41:00,50.0,27.0,30.30,NE,55,5.0,8.0,40,0.00,,,0.00,,2013-02-19 16:41:00,
2013-02-19 10:52:00,51.0,27.0,30.30,ENE,63,5.0,10.0,39,0.00,,,0.00,,2013-02-19 16:52:00,
2013-02-19 11:01:00,52.0,28.0,30.30,NE,42,2.0,8.0,39,0.00,,,0.00,,2013-02-19 17:01:00,
2013-02-19 11:11:00,52.0,28.0,30.30,NE,42,2.0,8.0,39,0.00,,,0.00,,2013-02-19 17:11:00,
2013-02-19 11:21:00,52.0,27.0,30.31,ENE,59,6.0,12.0,37,0.00,,,0.00,,2013-02-19 17:21:00,
2013-02-19 11:32:00,53.0,26.0,30.31,ENE,63,6.0,10.0,35,0.00,,,0.00,,2013-02-19 17:32:00,
2013-02-19 11:41:00,54.0,26.0,30.30,ENE,67,5.0,12.0,34,0.00,,,0.00,,2013-02-19 17:41:00,
2013-02-19 11:52:00,54.0,26.0,30.30,ENE,67,5.0,12.0,34,0.00,,,0.00,,2013-02-19 17:52:00,
2013-02-19 12:01:00,55.0,26.0,30.30,ENE,70,7.0,12.0,33,0.00,,,0.00,,2013-02-19 18:01:00,
2013-02-19 12:11:00,55.0,26.0,30.30,ENE,70,7.0,12.0,33,0.00,,,0.00,,2013-02-19 18:11:00,
2013-02-19 12:21:00,55.0,25.0,30.30,NE,55,8.0,12.0,31,0.00,,,0.00,,2013-02-19 18:21:00,
2013-02-19 12:31:00,56.0,25.0,30.29,NE,55,6.0,10.0,30,0.00,,,0.00,,2013-02-19 18:31:00,
2013-02-19 12:41:00,57.0,26.0,30.28,NE,49,6.0,14.0,30,0.00,,,0.00,,2013-02-19 18:41:00,
2013-02-19 12:52:00,57.0,26.0,30.28,NE,49,6.0,14.0,30,0.00,,,0.00,,2013-02-19 18:52:00,
2013-02-19 13:01:00,57.0,24.0,30.27,ENE,61,6.0,12.0,28,0.00,,,0.00,,2013-02-19 19:01:00,
2013-02-19 13:11:00,57.0,24.0,30.27,ENE,61,6.0,12.0,28,0.00,,,0.00,,2013-02-19 19:11:00,
2013-02-19 13:21:00,58.0,24.0,30.27,ENE,71,4.0,7.0,27,0.00,,,0.00,,2013-02-19 19:21:00,
2013-02-19 13:31:00,59.0,25.0,30.25,NE,52,4.0,10.0,27,0.00,,,0.00,,2013-02-19 19:31:00,
2013-02-19 13:41:00,59.0,25.0,30.25,NE,52,4.0,10.0,27,0.00,,,0.00,,2013-02-19 19:41:00,
2013-02-19 13:52:00,59.0,23.0,30.24,ENE,65,8.0,12.0,25,0.00,,,0.00,,2013-02-19 19:52:00,
2013-02-19 14:01:00,59.0,23.0,30.23,NE,49,2.0,12.0,25,0.00,,,0.00,,2013-02-19 20:01:00,
2013-02-19 14:12:00,59.0,23.0,30.23,NE,49,2.0,12.0,25,0.00,,,0.00,,2013-02-19 20:12:00,
2013-02-19 14:21:00,60.0,25.0,30.22,ENE,59,3.0,10.0,26,0.00,,,0.00,,2013-02-19 20:21:00,
2013-02-19 14:32:00,61.0,25.0,30.21,ENE,63,2.0,5.0,25,0.00,,,0.00,,2013-02-19 20:32:00,
2013-02-19 14:41:00,61.0,25.0,30.21,ENE,63,2.0,5.0,25,0.00,,,0.00,,2013-02-19 20:41:00,
2013-02-19 14:52:00,60.0,24.0,30.20,ENE,62,6.0,14.0,25,0.00,,,0.00,,2013-02-19 20:52:00,
2013-02-19 15:02:00,61.0,24.0,30.20,ESE,118,6.0,13.0,24,0.00,,,0.00,,2013-02-19 21:02:00,
2013-02-19 15:11:00,61.0,24.0,30.20,ESE,118,6.0,13.0,24,0.00,,,0.00,,2013-02-19 21:11:00,
2013-02-19 15:21:00,62.0,25.0,30.19,ENE,57,3.0,12.0,24,0.00,,,0.00,,2013-02-19 21:21:00,
2013-02-19 15:31:00,62.0,26.0,30.17,East,100,6.0,12.0,25,0.00,,,0.00,,2013-02-19 21:31:00,
2013-02-19 15:42:00,62.0,26.0,30.17,East,100,6.0,12.0,25,0.00,,,0.00,,2013-02-19 21:42:00,
2013-02-19 15:52:00,62.0,25.0,30.16,ENE,67,3.0,9.0,24,0.00,,,0.00,,2013-02-19 21:52:00,
2013-02-19 16:02:00,63.0,27.0,30.16,ENE,71,3.0,8.0,25,0.00,,,0.00,,2013-02-19 22:02:00,
2013-02-19 16:11:00,63.0,27.0,30.16,ENE,71,3.0,8.0,25,0.00,,,0.00,,2013-02-19 22:11:00,
2013-02-19 16:21:00,62.0,26.0,30.16,East,81,3.0,9.0,25,0.00,,,0.00,,2013-02-19 22:21:00,
2013-02-19 16:32:00,62.0,26.0,30.16,SE,126,6.0,10.0,25,0.00,,,0.00,,2013-02-19 22:32:00,
2013-02-19 16:41:00,62.0,26.0,30.16,SE,126,6.0,10.0,25,0.00,,,0.00,,2013-02-19 22:41:00,
2013-02-19 16:52:00,61.0,24.0,30.16,ESE,106,5.0,12.0,24,0.00,,,0.00,,2013-02-19 22:52:00,
2013-02-19 17:01:00,62.0,25.0,30.15,SE,126,6.0,10.0,24,0.00,,,0.00,,2013-02-19 23:01:00,
2013-02-19 17:11:00,62.0,25.0,30.15,SE,126,6.0,10.0,24,0.00,,,0.00,,2013-02-19 23:11:00,
2013-02-19 17:21:00,61.0,25.0,30.16,ENE,73,4.0,10.0,25,0.00,,,0.00,,2013-02-19 23:21:00,
2013-02-19 17:32:00,61.0,27.0,30.15,ENE,68,4.0,12.0,27,0.00,,,0.00,,2013-02-19 23:32:00,
2013-02-19 17:41:00,61.0,27.0,30.15,ENE,68,4.0,12.0,27,0.00,,,0.00,,2013-02-19 23:41:00,
2013-02-19 17:52:00,60.0,27.0,30.16,ENE,67,2.0,8.0,28,0.00,,,0.00,,2013-02-19 23:52:00,
2013-02-19 18:01:00,59.0,26.0,30.16,East,96,4.0,8.0,28,0.00,,,0.00,,2013-02-20 00:01:00,
2013-02-19 18:11:00,59.0,26.0,30.16,East,96,4.0,8.0,28,0.00,,,0.00,,2013-02-20 00:11:00,
2013-02-19 18:21:00,58.0,26.0,30.15,East,88,2.0,8.0,29,0.00,,,0.00,,2013-02-20 00:21:00,
2013-02-19 18:31:00,58.0,28.0,30.15,East,100,1.0,7.0,31,0.00,,,0.00,,2013-02-20 00:31:00,
2013-02-19 18:41:00,58.0,28.0,30.15,East,100,1.0,7.0,31,0.00,,,0.00,,2013-02-20 00:41:00,
2013-02-19 18:52:00,57.0,27.0,30.15,ESE,105,3.0,7.0,32,0.00,,,0.00,,2013-02-20 00:52:00,
2013-02-19 19:02:00,57.0,28.0,30.16,ESE,108,2.0,6.0,33,0.00,,,0.00,,2013-02-20 01:02:00,
2013-02-19 19:11:00,57.0,28.0,30.16,ESE,108,2.0,6.0,33,0.00,,,0.00,,2013-02-20 01:11:00,
2013-02-19 19:21:00,57.0,28.0,30.15,ESE,107,3.0,8.0,33,0.00,,,0.00,,2013-02-20 01:21:00,
2013-02-19 19:32:00,56.0,27.0,30.14,ESE,103,2.0,6.0,33,0.00,,,0.00,,2013-02-20 01:32:00,
2013-02-19 19:42:00,56.0,27.0,30.14,ESE,103,2.0,6.0,33,0.00,,,0.00,,2013-02-20 01:42:00,
2013-02-19 19:52:00,56.0,28.0,30.14,East,86,3.0,6.0,34,0.00,,,0.00,,2013-02-20 01:52:00,
2013-02-19 20:01:00,56.0,28.0,30.15,ENE,76,2.0,6.0,34,0.00,,,0.00,,2013-02-20 02:01:00,
2013-02-19 20:11:00,56.0,28.0,30.15,ENE,76,2.0,6.0,34,0.00,,,0.00,,2013-02-20 02:11:00,
2013-02-19 20:21:00,56.0,28.0,30.14,ENE,76,2.0,5.0,34,0.00,,,0.00,,2013-02-20 02:21:00,
2013-02-19 20:31:00,56.0,28.0,30.16,ENE,74,2.0,6.0,34,0.00,,,0.00,,2013-02-20 02:31:00,
2013-02-19 20:42:00,56.0,28.0,30.16,ENE,74,2.0,6.0,34,0.00,,,0.00,,2013-02-20 02:42:00,
2013-02-19 20:52:00,56.0,28.0,30.17,ENE,74,1.0,5.0,34,0.00,,,0.00,,2013-02-20 02:52:00,
2013-02-19 21:01:00,56.0,28.0,30.16,ENE,72,4.0,8.0,34,0.00,,,0.00,,2013-02-20 03:01:00,
2013-02-19 21:12:00,56.0,28.0,30.16,ENE,72,4.0,8.0,34,0.00,,,0.00,,2013-02-20 03:12:00,
2013-02-19 21:22:00,56.0,27.0,30.16,East,80,5.0,10.0,33,0.00,,,0.00,,2013-02-20 03:22:00,
2013-02-19 21:32:00,55.0,28.0,30.16,East,81,3.0,8.0,35,0.00,,,0.00,,2013-02-20 03:32:00,
2013-02-19 21:41:00,55.0,28.0,30.16,East,81,3.0,8.0,35,0.00,,,0.00,,2013-02-20 03:41:00,
2013-02-19 21:52:00,55.0,32.0,30.17,East,98,3.0,7.0,41,0.00,,,0.00,,2013-02-20 03:52:00,
2013-02-19 22:01:00,54.0,33.0,30.17,East,98,1.0,7.0,45,0.01,,,0.01,,2013-02-20 04:01:00,
2013-02-19 22:11:00,54.0,33.0,30.17,East,98,1.0,7.0,45,0.01,,,0.01,,2013-02-20 04:11:00,
2013-02-19 22:21:00,52.0,38.0,30.17,East,98,0.0,5.0,58,0.02,,,0.02,,2013-02-20 04:21:00,
2013-02-19 22:31:00,51.0,38.0,30.16,East,98,2.0,5.0,61,0.02,,,0.02,,2013-02-20 04:31:00,
2013-02-19 22:41:00,51.0,38.0,30.16,East,98,2.0,5.0,61,0.02,,,0.02,,2013-02-20 04:41:00,
2013-02-19 22:52:00,50.0,38.0,30.15,East,98,2.0,5.0,63,0.02,,,0.02,,2013-02-20 04:52:00,
2013-02-19 23:02:00,50.0,37.0,30.14,East,94,3.0,6.0,60,0.01,,,0.02,,2013-02-20 05:02:00,
2013-02-19 23:12:00,50.0,37.0,30.14,East,94,3.0,6.0,60,0.01,,,0.02,,2013-02-20 05:12:00,
2013-02-19 23:22:00,51.0,37.0,30.14,ENE,67,4.0,8.0,58,0.00,,,0.02,,2013-02-20 05:22:00,
2013-02-19 23:32:00,51.0,36.0,30.13,ENE,65,4.0,10.0,56,0.00,,,0.02,,2013-02-20 05:32:00,
2013-02-19 23:43:00,51.0,36.0,30.13,ENE,65,4.0,10.0,56,0.00,,,0.02,,2013-02-20 05:43:00,
2013-02-19 23:52:00,51.0,35.0,30.13,ENE,67,4.0,7.0,55,0.00,,,0.02,,2013-02-20 05:52:00,